This demonstration page uses our WeatherBlox Daily Observations layout. Learn more.

Left ArrowRight Arrow

39.92423, -83.80882

Hourly Observations for January 15, 2019

Temp ( °F °C ) Dew Point ( °F °C ) Humidity (%) Winds ( mph kmh ) Pressure ( in mb ) Visibility ( mi km ) Precip ( " mm )
12:11 am 00:11 Clear with Mist and Fog 3 -16 1 -17 92 92 SSW 3 6 30.42 1030 1 2 N/A
12:16 am 00:16 Clear with Mist and Fog 3 -16 1 -17 92 92 SSW 3 6 30.42 1030 2 3 N/A
12:25 am 00:25 Clear with Mist and Fog 3 -16 1 -17 92 92 SSW 3 6 30.42 1030 3 5 N/A
12:56 am 00:56 Clear with Mist and Fog 3 -16.1 N/A 87 87 SSW 3 6 30.32 1027 3 5 N/A
1:56 am 01:56 Clear with Mist and Fog 2 -16.7 N/A 91 91 S 3 6 30.32 1027 6 10 N/A
2:56 am 02:56 Clear with Mist and Fog 1 -17.2 -1 -18.3 91 91 S 3 6 30.32 1027 5 8 N/A
3:56 am 03:56 Clear with Mist and Fog 4 -15.6 1 -17.2 88 88 SW 6 9 30.31 1027 2 3 N/A
4:15 am 04:15 Clear with Mist and Fog 7 -14 7 -14 100 100 SW 5 7 30.36 1028 2 3 N/A
4:22 am 04:22 Mostly Cloudy with Mist and Fog 9 -13 7 -14 92 92 SW 6 9 30.36 1028 1 1 N/A
4:26 am 04:26 Mostly Cloudy with Freezing Fog 7 -14 5 -15 92 92 SW 6 9 30.36 1028 0 0 N/A
4:45 am 04:45 Cloudy with Mist and Fog 10 -12 9 -13 92 92 SW 3 6 30.36 1028 1 1 N/A
4:48 am 04:48 Cloudy with Mist and Fog 10 -12 9 -13 92 92 WSW 5 7 30.36 1028 1 2 N/A
4:56 am 04:56 Cloudy with Mist and Fog 10 -12.2 8 -13.3 92 92 WSW 5 7 30.31 1027 2 2 N/A
5:08 am 05:08 Cloudy with Mist and Fog 10 -12 9 -13 92 92 WSW 5 7 30.36 1028 2 3 N/A
5:22 am 05:22 Cloudy with Mist and Fog 12 -11 10 -12 92 92 WSW 9 15 30.36 1028 2 3 N/A
5:29 am 05:29 Cloudy with Mist and Fog 14 -10 12 -11 92 92 WSW 9 15 30.36 1028 1 1 N/A
5:39 am 05:39 Cloudy with Freezing Fog 16 -9 14 -10 93 93 WSW 9 15 30.36 1028 1 1 N/A
5:56 am 05:56 Cloudy with Freezing Fog 16 -8.9 15 -9.4 96 96 W 12 19 30.31 1026 1 1 N/A
6:16 am 06:16 Cloudy with Mist and Fog 18 -8 16 -9 93 93 W 12 19 30.33 1027 1 2 N/A
6:47 am 06:47 Cloudy with Mist and Fog 18 -8 16 -9 93 93 W 6 9 30.39 1029 1 1 N/A
6:56 am 06:56 Cloudy with Mist and Fog 17 -8.3 16 -8.9 95 95 SW 5 7 30.32 1027 1 1 N/A
7:12 am 07:12 Cloudy with Freezing Fog 18 -8 16 -9 93 93 W 3 6 30.39 1029 1 1 N/A
7:24 am 07:24 Cloudy with Freezing Fog 18 -8 16 -9 93 93 SW 6 9 30.39 1029 0 0 N/A
7:56 am 07:56 Cloudy with Freezing Fog 18 -7.8 17 -8.3 96 96 WSW 6 9 30.31 1027 0 0 N/A
8:01 am 08:01 Cloudy with Mist and Fog 18 -8 18 -8 100 100 WSW 5 7 30.33 1027 1 1 N/A
8:06 am 08:06 Cloudy with Mist and Fog 18 -8 18 -8 100 100 SW 3 6 30.33 1027 1 2 N/A
8:27 am 08:27 Cloudy with Mist and Fog 18 -8 16 -9 93 93 SSW 5 7 30.39 1029 1 2 N/A
8:35 am 08:35 Cloudy with Mist and Fog 18 -8 16 -9 93 93 SSW 3 6 30.33 1027 1 1 N/A
8:56 am 08:56 Cloudy with Mist and Fog 17 -8.3 16 -8.9 95 95 N N/A 30.32 1027 1 2 N/A
9:23 am 09:23 Cloudy with Mist and Fog 18 -8 18 -8 100 100 SSW 3 6 30.39 1029 1 2 N/A
9:56 am 09:56 Cloudy with Mist and Fog 19 -7.2 18 -7.8 96 96 SSW 6 9 30.33 1027 2 2 N/A
10:56 am 10:56 Cloudy with Mist and Fog 20 -6.7 20 -6.7 100 100 WSW 12 19 30.34 1028 2 3 N/A
11:08 am 11:08 Cloudy with Mist and Fog 21 -6 19 -7 93 93 WSW 10 17 30.36 1028 2 3 N/A
11:21 am 11:21 Cloudy with Mist and Fog 21 -6 19 -7 93 93 WSW 10 17 30.36 1028 3 5 N/A
11:56 am 11:56 Cloudy with Mist and Fog 22 -5.6 21 -6.1 96 96 WSW 12 19 30.33 1027 3 5 N/A
12:38 pm 12:38 Cloudy with Mist and Fog 23 -5 21 -6 93 93 WSW 15 24 30.33 1027 5 8 N/A
12:56 pm 12:56 Cloudy with Mist and Fog 23 -5 22 -5.6 96 96 WSW 14 22 30.29 1026 5 8 N/A
1:56 pm 13:56 Cloudy with Mist and Fog 23 -5 23 -5 100 100 WSW 13 20 30.28 1025 5 8 N/A
2:56 pm 14:56 Cloudy with Mist and Fog 24 -4.4 23 -5 96 96 WSW 14 22 30.25 1025 5 8 N/A
3:56 pm 15:56 Cloudy with Mist and Fog 25 -3.9 24 -4.4 96 96 WSW 12 19 30.25 1024 4 6 N/A
4:24 pm 16:24 Cloudy with Mist and Fog 25 -4 25 -4 100 100 SW 13 20 30.27 1025 3 4 N/A
4:56 pm 16:56 Cloudy with Mist and Fog 26 -3.3 26 -3.3 100 100 WSW 13 20 30.23 1024 2 3 N/A
5:49 pm 17:49 Cloudy with Light Snow 27 -3 27 -3 100 100 SW 10 17 30.24 1024 1 2 N/A
5:56 pm 17:56 Cloudy with Light Snow 26 -3.3 26 -3.3 100 100 SW 9 15 30.22 1023 1 2 N/A
6:10 pm 18:10 Cloudy with Light Snow 27 -3 27 -3 100 100 SSW 10 17 30.24 1024 2 3 N/A
6:17 pm 18:17 Cloudy with Light Freezing Rain 27 -3 27 -3 100 100 SW 9 15 30.24 1024 2 3 N/A
6:56 pm 18:56 Cloudy with Light Freezing Rain 27 -2.8 27 -2.8 100 100 SW 12 19 30.21 1023 2 3 N/A
7:03 pm 19:03 Cloudy with Mist and Fog 27 -3 27 -3 100 100 SW 10 17 30.24 1024 2 3 N/A
7:52 pm 19:52 Cloudy with Mist and Fog 27 -3 27 -3 100 100 SW 12 19 30.24 1024 3 5 N/A
7:56 pm 19:56 Cloudy with Mist and Fog 27 -2.8 27 -2.8 100 100 SW 12 19 30.19 1023 3 5 N/A
8:05 pm 20:05 Cloudy with Mist and Fog 27 -3 27 -3 100 100 SW 12 19 30.24 1024 3 4 N/A
8:13 pm 20:13 Cloudy with Mist and Fog 27 -3 27 -3 100 100 SW 12 19 30.24 1024 3 5 N/A
8:56 pm 20:56 Cloudy with Mist and Fog 28 -2.2 28 -2.2 100 100 SW 14 22 30.18 1022 3 5 N/A
9:48 pm 21:48 Cloudy with Mist and Fog 28 -2 28 -2 100 100 WSW 21 33 30.18 1022 5 8 N/A
9:56 pm 21:56 Cloudy with Mist and Fog 28 -2.2 28 -2.2 100 100 SW 21 33 30.16 1022 5 8 N/A
10:56 pm 22:56 Cloudy with Mist and Fog 29 -1.7 29 -1.7 100 100 SW 18 30 30.16 1022 5 8 N/A
11:56 pm 23:56 Cloudy with Mist and Fog 29 -1.7 29 -1.7 100 100 SW 17 28 30.15 1021 5 8 N/A

Powered by AerisWeather